Flag Weather past 2 weeks in Fehmarn (Puttgarden), Schleswig-Holstein, Germany

Now
42 °F

Passing clouds.


Feels Like: 38 °F
Forecast: 42 / 44 °F
Wind: 7 mph from Southeast

Location: Westermarkelsdorf

Current Time: Nov 26, 2014 at 3:32:19 PM

Latest Report: Nov 26, 2014 at 3:00 PM


Visibility: 9 mi

Pressure: 30.20 "Hg

Humidity: 86%

Dew point: 38 °F

Location of Fehmarn (Puttgarden)Location

Historic Weather in Fehmarn (Puttgarden) — Graph

°F

Fehmarn (Puttgarden) temperature yesterday

Maximum temperature yesterday: 48 °F (at 1:00 PM)
Minimum temperature yesterday: 41 °F (at 11:00 PM)
Average temperature yesterday: 47 °F

Past Weeks' High & Low Weather Summary

 TemperatureHumidityPressure
High52 °F (Nov 12, 7:00 PM)100% (Nov 11, 8:00 PM)30.39 "Hg (Nov 11, 8:00 PM)
Low39 °F (Nov 22, 7:00 AM)75% (Nov 24, 3:00 PM)29.63 "Hg (Nov 16, 5:00 PM)
Average47 °F91%30.04 "Hg
* Reported Nov 11 2:00 PM — Nov 26 2:00 PM, Fehmarn (Puttgarden), Weather by CustomWeather, © 2014

Note: Actual official high and low records may vary slightly from our data, if they occured in-between our weather recording intervals... More about our weather records

Advertising

Fehmarn (Puttgarden) weather history for previous 24 hours

 ConditionsComfort  
Time TempWeatherWind HumidityBarometerVisibility
2:00 PM
Nov 26
42 °FPartly sunny.7 mph84%30.22 "Hg12 mi
1:00 PM42 °FOvercast.9 mph84%30.24 "Hg15 mi
12:00 PM43 °FOvercast.7 mph85%30.25 "Hg17 mi
11:00 AM43 °FOvercast.6 mph82%30.27 "Hg17 mi
9:00 AM42 °FOvercast.5 mph87%30.27 "Hg25 mi
8:00 AM41 °FOvercast.2 mph98%30.27 "Hg7 mi
7:00 AM41 °FOvercast.3 mph99%30.27 "Hg7 mi
6:00 AM41 °FFog.3 mph100%30.27 "Hg3 mi
5:00 AM42 °FFog.2 mph100%30.27 "Hg1 mi
3:00 AM41 °FLow clouds.3 mph100%30.29 "Hg0 mi
2:00 AM41 °FLow clouds.5 mph100%30.30 "Hg0 mi
1:00 AM40 °FLow clouds.3 mph100%30.32 "Hg0 mi
12:00 AM41 °FOvercast.3 mph100%30.32 "Hg1 mi
11:00 PM
Nov 25
41 °FOvercast.1 mph100%30.33 "Hg0 mi
9:00 PM42 °FOvercast.2 mph99%30.34 "Hg7 mi
8:00 PM44 °FPassing clouds.No wind95%30.33 "Hg19 mi
7:00 PM47 °FOvercast.3 mph91%30.33 "Hg25 mi
6:00 PM46 °FClear.3 mph92%30.32 "Hg22 mi
5:00 PM47 °FClear.3 mph89%30.32 "Hg22 mi
3:00 PM47 °FPartly sunny.5 mph87%30.33 "Hg19 mi
Weather by CustomWeather, © 2014

See weather overviewHow to use our weather pages